[[{"header":{"parameterUnit":"m.s-1","parameterCategory":1,"la1":30.2991,"la2":30.254,"lo1":-89.0895,"lo2":-89.0444,"dy":0.0017,"dx":0.0017,"nx":28,"ny":28,"refTime":"2024-05-16T21:00:00:Z","depth":0,"parameterNumber":2,"parameterNumberName":"U-component_of_WINDS"},"data":[0,0,0,0,0,0,0,0,0,0,0,0,0,0,0,0,0,0,0,0,0,0,0,0,0,0,0,0,0,0,0,0,0,0,0,0,0,0,0,0,0,0,0,0,0,0,0,0,0,0,0,0,0,0,0,0,0,0,-1.0619,-1.0617,0,-1.0501,-1.0499,-1.0498,-1.045,-1.045,-1.045,-1.0451,-1.0332,-1.0329,-1.0325,0,0,0,0,0,0,0,0,0,0,0,0,0,-1.0806,-1.0803,-1.0619,-1.0617,-1.0616,-1.0501,-1.0499,-1.0498,-1.045,-1.045,-1.045,-1.0451,-1.0333,-1.0329,-1.0325,0,0,0,0,0,0,0,0,0,0,0,0,0,-1.071,-1.0802,-1.0619,-1.0578,-1.0573,-1.0501,-1.0499,-1.0497,-1.045,-1.045,-1.045,-1.0451,-1.0334,-1.0329,-1.0324,-1.0285,0,0,-1.0309,-1.0307,0,0,0,0,0,0,0,0,-1.0716,-1.0703,-1.0585,-1.0581,-1.0575,-1.049,-1.0522,-1.0426,-1.045,-1.0497,-1.0451,-1.0451,-1.0384,-1.0375,-1.0352,-1.028,-1.0274,-1.0308,-1.0305,-1.0303,-1.0302,0,0,0,0,0,0,0,-1.0722,-1.0708,-1.0572,-1.0584,-1.0577,-1.0567,-1.0553,-1.0503,-1.044,-1.0493,-1.0489,-1.0475,-1.0382,-1.0357,-1.0349,-1.0273,-1.0308,-1.0304,-1.0301,-1.0299,-1.0164,-1.0163,0,0,0,0,0,0,-1.0735,-1.0714,-1.0576,-1.0569,-1.0648,-1.0563,-1.0548,-1.0517,-1.044,-1.0429,-1.0475,-1.0474,-1.0366,-1.0355,-1.0345,-1.0294,-1.0303,-1.0298,-1.0295,-1.0164,-1.0164,-1.0163,0,0,0,0,0,0,-1.074,-1.0723,-1.0581,-1.064,-1.0621,-1.0559,-1.0525,-1.0515,-1.049,-1.0427,-1.0416,-1.0462,-1.0366,-1.0352,-1.0301,-1.029,-1.0296,-1.0291,-1.0165,-1.0164,-1.0163,-1.0193,0,0,0,0,0,0,-1.0745,-1.0725,-1.0709,-1.064,-1.0618,-1.0537,-1.0524,-1.0512,-1.0481,-1.0478,-1.0411,-1.0401,-1.0365,-1.0308,-1.0296,-1.0283,-1.0287,-1.0166,-1.0165,-1.0164,-1.0193,-1.0193,-1.0194,0,0,0,0,0,-1.0752,-1.0722,-1.0708,-1.0692,-1.0596,-1.0537,-1.0524,-1.0483,-1.0481,-1.0464,-1.0424,-1.0403,-1.0293,-1.0304,-1.0289,-1.0274,-1.0166,-1.0165,-1.0164,-1.0192,-1.0193,-1.0194,0,0,0,0,0,0,-1.079,-1.0712,-1.0696,-1.0642,-1.0597,-1.0528,-1.0506,-1.0485,-1.0439,-1.0438,-1.039,-1.0375,-1.0328,-1.0296,-1.0309,-1.0233,-1.0228,-1.0224,-1.0255,-1.0255,-1.0256,-1.0264,-1.0283,0,0,0,0,0,-1.0793,-1.075,-1.0684,-1.0644,-1.0621,-1.0568,-1.0541,-1.0513,-1.0464,-1.0444,-1.04,-1.0354,-1.031,-1.0281,-1.0236,-1.0189,-1.0174,-1.0172,-1.0172,-1.0173,-1.0169,-1.0143,-1.0141,-1.0159,-1.0159,-1.0159,0,0,-1.0797,-1.0749,-1.0725,-1.065,-1.0611,-1.0569,-1.0552,-1.0508,-1.0477,-1.0438,-1.0386,-1.0353,-1.0299,-1.0249,-1.0225,-1.0221,-1.0162,-1.0171,-1.0172,-1.0168,-1.0142,-1.014,-1.0139,-1.0159,-1.0159,-1.0159,0,0,-1.0783,-1.0742,-1.0704,-1.0666,-1.0608,-1.0573,-1.0564,-1.0499,-1.0476,-1.0423,-1.0394,-1.0357,-1.028,-1.0243,-1.0214,-1.0189,-1.0169,-1.0177,-1.0179,-1.0154,-1.0152,-1.0151,-1.0142,-1.014,-1.0174,-1.0174,-1.0174,0,-1.0795,-1.073,-1.0687,-1.0645,-1.0614,-1.0577,-1.0539,-1.0505,-1.0435,-1.0415,-1.0411,-1.0316,-1.0276,-1.0218,-1.0213,-1.019,-1.018,-1.0183,-1.0156,-1.0154,-1.0152,-1.0143,-1.014,-1.0175,-1.0175,-1.0175,-1.0175,0,-1.0749,-1.0704,-1.0681,-1.0614,-1.058,-1.0541,-1.0493,-1.0464,-1.0441,-1.0407,-1.0355,-1.0308,-1.0253,-1.0238,-1.0214,-1.0177,-1.0176,-1.0165,-1.0159,-1.0152,-1.0143,-1.014,-1.0177,-1.0176,-1.0176,-1.0176,0,0,-1.0753,-1.0665,-1.0657,-1.0627,-1.0561,-1.0527,-1.0487,-1.0433,-1.0409,-1.0364,-1.0329,-1.0267,-1.0257,-1.0224,-1.0197,-1.0175,-1.0159,-1.0166,-1.0165,-1.0167,-1.0116,-1.0124,-1.0121,-1.0146,-1.0145,-1.0144,-1.0121,0,-1.073,-1.0654,-1.0616,-1.0558,-1.0517,-1.0483,-1.0448,-1.0405,-1.0373,-1.0335,-1.03,-1.0256,-1.0246,-1.0227,-1.0204,-1.0166,-1.0148,-1.0167,-1.0114,-1.0112,-1.0127,-1.0116,-1.0123,-1.0103,-1.0117,-1.0116,-1.0116,0,-1.0692,-1.0646,-1.0584,-1.0524,-1.0506,-1.0475,-1.0423,-1.0387,-1.0338,-1.0317,-1.0282,-1.0255,-1.0213,-1.0212,-1.0154,-1.0168,-1.0144,-1.0123,-1.0121,-1.0114,-1.0113,-1.0108,-1.0096,-1.0092,-1.011,-1.011,-1.0111,0,-1.0701,-1.0624,-1.0577,-1.0553,-1.0482,-1.0462,-1.0432,-1.0383,-1.0354,-1.031,-1.0291,-1.0243,-1.0217,-1.0181,-1.0143,-1.0145,-1.0089,-1.0084,-1.0071,-1.0072,-1.0059,-1.006,-1.0042,-1.0046,-1.0046,-1.0046,-1.0046,0,-1.0678,-1.0641,-1.0581,-1.0551,-1.051,-1.0468,-1.0428,-1.0396,-1.0353,-1.0319,-1.0288,-1.0256,-1.0208,-1.0171,-1.0141,-1.0098,-1.0087,-1.0069,-1.0061,-1.0071,-1.0073,-1.0053,-1.0054,-1.0045,-1.0045,-1.0045,-1.0045,0,-1.068,-1.0638,-1.0585,-1.0523,-1.0507,-1.0479,-1.0427,-1.0398,-1.0366,-1.0322,-1.031,-1.0259,-1.0214,-1.0173,-1.0113,-1.0093,-1.005,-1.0041,-1.0066,-1.0061,-1.005,-1.0051,-1.0018,-1.0012,-1.0021,-1.0021,-1.0021,0,-1.0668,-1.0639,-1.0575,-1.0549,-1.0519,-1.0478,-1.0448,-1.0407,-1.0377,-1.0321,-1.03,-1.0253,-1.0212,-1.0142,-1.01,-1.0055,-1.0044,-1.0036,-1.0037,-1.0048,-1.0044,-1.0045,-1.0043,-1.0036,-1.0036,-1.0036,-1.0036,0,-1.0651,-1.0632,-1.059,-1.0541,-1.0506,-1.0466,-1.0425,-1.0406,-1.0357,-1.0326,-1.0279,-1.0248,-1.0188,-1.0141,-1.0092,-1.0062,-1.0041,-1.0037,-1.0031,-1.004,-1.0056,-1.0047,-1.0066,-1.0037,-1.0037,-1.0037,-1.0037,-1.0037,-1.0645,-1.0618,-1.0568,-1.0523,-1.0488,-1.0451,-1.0421,-1.0386,-1.0346,-1.0293,-1.0271,-1.0224,-1.0179,-1.011,-1.0081,-1.0044,-1.004,-1.0032,-1.003,-1.0028,-1.003,-1.0063,-1.0035,-1.0035,-1.0035,-1.0035,-1.0035,0,-1.0625,-1.0592,-1.0551,-1.0495,-1.046,-1.0444,-1.0398,-1.037,-1.0329,-1.0288,-1.0249,-1.0197,-1.0152,-1.0108,-1.0062,-1.0042,-1.0031,-1.0031,-1.0031,-1.0025,-1.0036,-1.0046,-1.004,-1.004,-1.004,-1.004,-1.004,-1.004,-1.0611,-1.0564,-1.054,-1.0477,-1.0445,-1.0398,-1.0373,-1.034,-1.0307,-1.0249,-1.0212,-1.0184,-1.0142,-1.0093,-1.0052,-1.004,-1.0025,-1.0027,-1.0013,-1.0024,-1.0024,-1.0024,-1.0032,-1.0024,-1.0024,-1.0004,-1.0004,-1.0004]},{"header":{"parameterUnit":"m.s-1","parameterCategory":1,"la1":30.2991,"la2":30.254,"lo1":-89.0895,"lo2":-89.0444,"dy":0.0017,"dx":0.0017,"nx":28,"ny":28,"refTime":"2024-05-16T21:00:00:Z","depth":0,"parameterNumber":3,"parameterNumberName":"V-component_of_WINDS"},"data":[0,0,0,0,0,0,0,0,0,0,0,0,0,0,0,0,0,0,0,0,0,0,0,0,0,0,0,0,0,0,0,0,0,0,0,0,0,0,0,0,0,0,0,0,0,0,0,0,0,0,0,0,0,0,0,0,0,0,1.703,1.703,0,1.6981,1.698,1.6979,1.7051,1.7053,1.7056,1.7058,1.7001,1.6998,1.6994,0,0,0,0,0,0,0,0,0,0,0,0,0,1.7183,1.7179,1.703,1.703,1.7029,1.6981,1.698,1.6979,1.705,1.7053,1.7056,1.7059,1.7003,1.6998,1.6993,0,0,0,0,0,0,0,0,0,0,0,0,0,1.7123,1.7178,1.7031,1.7059,1.7061,1.6981,1.698,1.6979,1.705,1.7053,1.7057,1.7061,1.7004,1.6998,1.6993,1.6881,0,0,1.6975,1.6973,0,0,0,0,0,0,0,0,1.7126,1.7117,1.7055,1.7057,1.7059,1.7026,1.7013,1.6946,1.7049,1.7054,1.7058,1.7063,1.7006,1.7,1.6982,1.6878,1.6876,1.6975,1.6971,1.6968,1.6967,0,0,0,0,0,0,0,1.713,1.712,1.7011,1.7054,1.7056,1.7073,1.7068,1.7001,1.7009,1.7053,1.7059,1.7052,1.7008,1.6988,1.6982,1.6875,1.6975,1.697,1.6966,1.6964,1.6675,1.6671,0,0,0,0,0,0,1.7132,1.7123,1.7012,1.7009,1.7103,1.7067,1.7062,1.7032,1.701,1.701,1.7049,1.7055,1.6996,1.6988,1.698,1.6846,1.6969,1.6963,1.696,1.6679,1.6674,1.667,0,0,0,0,0,0,1.7135,1.7121,1.7014,1.7067,1.7055,1.706,1.7026,1.7029,1.701,1.7007,1.7008,1.7027,1.6999,1.6988,1.6905,1.6845,1.696,1.6955,1.6684,1.6678,1.6672,1.6577,0,0,0,0,0,0,1.7139,1.7122,1.708,1.7066,1.7052,1.6941,1.7023,1.7026,1.7,1.7008,1.6987,1.6986,1.7001,1.6913,1.6899,1.6839,1.6951,1.669,1.6681,1.6674,1.6585,1.6568,1.6554,0,0,0,0,0,1.7144,1.7054,1.7078,1.7064,1.7,1.6937,1.6929,1.6949,1.6995,1.6952,1.6951,1.6987,1.6855,1.6904,1.6889,1.6826,1.6693,1.6684,1.6675,1.6593,1.6572,1.6554,0,0,0,0,0,0,1.7059,1.7053,1.7079,1.6982,1.696,1.695,1.6896,1.6927,1.6889,1.6898,1.6923,1.6918,1.6828,1.682,1.6875,1.6716,1.6781,1.6768,1.6724,1.6704,1.6689,1.6691,1.6946,0,0,0,0,0,1.703,1.6981,1.6978,1.6893,1.6881,1.689,1.6864,1.6882,1.6859,1.6849,1.6841,1.6816,1.6769,1.6737,1.6693,1.6586,1.6581,1.6535,1.6519,1.6506,1.6493,1.6434,1.6413,1.6639,1.6639,1.6639,0,0,1.6967,1.6958,1.6925,1.6876,1.686,1.6807,1.6882,1.6823,1.6783,1.684,1.676,1.6754,1.6728,1.6632,1.6589,1.6621,1.6431,1.6494,1.6484,1.6478,1.6422,1.6401,1.6382,1.6633,1.6634,1.6635,0,0,1.6826,1.6815,1.6742,1.6726,1.6703,1.6711,1.6693,1.6679,1.6677,1.6599,1.664,1.6593,1.6511,1.6491,1.6469,1.6322,1.6353,1.6307,1.6222,1.6164,1.6146,1.6131,1.6075,1.6055,1.6296,1.6295,1.6295,0,1.675,1.6673,1.6701,1.6639,1.6615,1.6667,1.6592,1.6575,1.6538,1.6519,1.6557,1.6456,1.6442,1.6341,1.6306,1.6288,1.6267,1.6308,1.6147,1.6132,1.6117,1.6064,1.6044,1.629,1.629,1.6291,1.6291,0,1.658,1.6527,1.6471,1.6435,1.6406,1.6337,1.6353,1.632,1.6341,1.6344,1.6263,1.6249,1.6202,1.6181,1.62,1.6082,1.6103,1.6144,1.6209,1.6089,1.604,1.602,1.6281,1.6284,1.6285,1.6287,0,0,1.638,1.6363,1.6341,1.6325,1.6305,1.6263,1.6197,1.6154,1.6124,1.6098,1.6041,1.5972,1.601,1.5986,1.6004,1.5954,1.5835,1.6001,1.6,1.5967,1.5701,1.5667,1.5643,1.5857,1.5854,1.5851,1.5702,0,1.6236,1.6124,1.6147,1.6036,1.5985,1.6035,1.5978,1.5958,1.5959,1.5916,1.5918,1.5867,1.5923,1.5908,1.5861,1.5859,1.5781,1.5871,1.5802,1.5799,1.5803,1.5618,1.5582,1.5442,1.5683,1.568,1.5677,0,1.6053,1.6021,1.5905,1.5892,1.5872,1.582,1.5782,1.5741,1.5719,1.5724,1.5698,1.5726,1.5659,1.5729,1.5636,1.5696,1.567,1.5665,1.566,1.5651,1.5728,1.56,1.5398,1.5375,1.5648,1.565,1.5652,0,1.5914,1.5842,1.5763,1.5749,1.5733,1.5695,1.5686,1.5669,1.5642,1.5609,1.5591,1.555,1.5526,1.5494,1.5509,1.5559,1.5412,1.5484,1.5411,1.541,1.5374,1.5375,1.5161,1.5364,1.5364,1.5365,1.5365,0,1.5748,1.5674,1.5701,1.5651,1.557,1.5598,1.5516,1.5513,1.5498,1.5448,1.549,1.5441,1.5467,1.542,1.5432,1.5351,1.5342,1.5342,1.5345,1.5335,1.5335,1.5315,1.5324,1.5359,1.536,1.5361,1.5362,0,1.5578,1.5593,1.5509,1.5502,1.5499,1.5438,1.5432,1.5385,1.5392,1.5327,1.5314,1.5323,1.527,1.5284,1.5226,1.5235,1.5132,1.5149,1.5139,1.5141,1.5067,1.5072,1.4829,1.4797,1.5024,1.5022,1.5021,0,1.5469,1.5413,1.5401,1.5371,1.536,1.5312,1.5284,1.531,1.528,1.5252,1.5208,1.516,1.5122,1.5036,1.5036,1.4992,1.5006,1.4924,1.4999,1.4991,1.5,1.5002,1.4995,1.4907,1.4905,1.4903,1.4901,0,1.5273,1.5284,1.5244,1.5206,1.5172,1.5143,1.5118,1.5091,1.5116,1.5079,1.5027,1.4998,1.494,1.489,1.4851,1.484,1.4873,1.4878,1.4858,1.4846,1.484,1.4839,1.5093,1.4882,1.4884,1.4885,1.4886,1.4887,1.5128,1.508,1.5064,1.5017,1.5002,1.4977,1.4933,1.4935,1.4892,1.4848,1.4866,1.4805,1.4786,1.4736,1.4721,1.4672,1.4703,1.4675,1.4667,1.4659,1.4648,1.4852,1.4666,1.4666,1.4667,1.4667,1.4668,0,1.4931,1.4924,1.4881,1.4845,1.4808,1.4847,1.4821,1.4787,1.4733,1.4713,1.4676,1.4615,1.4568,1.4565,1.452,1.4482,1.4496,1.4469,1.447,1.4466,1.4625,1.4645,1.4458,1.4458,1.4459,1.4459,1.4459,1.4459,1.4824,1.4745,1.4754,1.4667,1.466,1.4602,1.4583,1.4561,1.4545,1.4475,1.4437,1.4437,1.4423,1.4378,1.4336,1.4336,1.4316,1.4282,1.4288,1.4435,1.4455,1.4475,1.4494,1.4279,1.4279,1.4133,1.4132,1.4131]}]]